Regional Weather Roundup
Issued by NWS Columbia, SC

Home | Current Version | Previous Version | Text Only | Print | Product List | Glossary On
Versions: 1 2 3 4 5 6 7 8 9 10 11 12 13 14 15 16 17 18 19 20 21 22 23 24 25 26 27 28 29 30 31 32 33 34 35 36 37 38 39 40 41 42 43 44 45 46 47 48 49 50
567
ASUS42 KCAE 301010
RWRCAE
REGIONAL WEATHER ROUNDUP
NATIONAL WEATHER SERVICE COLUMBIA SC
600 AM EDT MON MAY 30 2016

NOTE: "FAIR" INDICATES FEW OR NO CLOUDS BELOW 12,000 FEET WITH NO
SIGNIFICANT WEATHER AND/OR OBSTRUCTIONS TO VISIBILITY.

NOT ALL STATIONS ARE QUALITY CONTROLLED BY THE NATIONAL
WEATHER SERVICE. USE DATA WITH CAUTION...ESPECIALLY
DEWPOINT OBSERVATIONS.

SCZ001>056-GAZ040-063>065-077-301100-
...UPSTATE SOUTH CAROLINA...

CITY           SKY/WX    TMP DP  RH WIND       PRES   REMARKS
ANDERSON       CLEAR     62  60  93 N3        30.02R
LIBERTY        SUNNY     59  58  99 CALM      30.02F FOG
SPARTANBURG    PTCLDY    63  57  82 N5        30.01S
CLEMSON        FOG       66  63  90 NW5       30.04S VSB<1/4
GREENVILLE     CLEAR     63  57  81 N6        30.03S
GREENWOOD      CLOUDY    63  58  83 NW3       30.01S
GREER          CLEAR     63  59  87 N3        30.01S
ROCK HILL      CLOUDY    67  61  81 N9        30.01S
CHESTER        CLOUDY    64  61  88 N8        30.00S
LAURENS        CLOUDY    64  61  88 N6        30.00S


...CENTRAL SOUTH CAROLINA...

CITY           SKY/WX    TMP DP  RH WIND       PRES   REMARKS
COLUMBIA APT   CLOUDY    70  63  78 N6        29.95R
COLUMBIA OWENS LGT RAIN  67  65  93 CALM      29.96R FOG
MCENTIRE ANGB  LGT RAIN  66  65  96 N9        29.94S
ORANGEBURG     LGT RAIN  68  66  93 N7        29.93R
SUMTER SHAW    CLOUDY    66  64  94 N9        29.91S
NEWBERRY       PTSUNNY   64  63  94 N6        30.01S
AIKEN          FAIR      63  61  94 N3        30.00S
BARNWELL       FAIR      70  70 100 NW3       29.95R
MANNING        DRIZZLE   68  68 100 NW5       29.91R
LANCASTER      CLOUDY    66  64  94 N6        29.99R
WINNSBORO      CLOUDY    64  63  94 N6        29.97S


...EASTERN AND COASTAL SOUTH CAROLINA...

CITY           SKY/WX    TMP DP  RH WIND       PRES   REMARKS
MYRTLE BEACH   CLOUDY    73  64  73 S14       29.93R
N MYRTLE BCH   CLOUDY    75  70  84 SE10      29.91S
CONWAY         CLOUDY    70  70 100 CALM      29.91S
MARION         LGT RAIN  70  68  94 NE7       29.92S
HARTSVILLE     CLOUDY    64  64 100 N7        29.94S
FLORENCE       CLOUDY    72  70  93 NE9       29.92R
DARLINGTON     CLOUDY    68  68 100 N9        29.94S FOG
CHARLESTON APT MOCLDY    71  68  90 W7        29.90R
MOUNT PLEASANT CLOUDY    70  70 100 CALM      29.90R
WALTERBORO     CLOUDY    70  70 100 NW6       29.93R
BEAUFORT       LGT RAIN  69  67  93 W9        29.93R


...EASTERN GEORGIA...

CITY           SKY/WX    TMP DP  RH WIND       PRES   REMARKS
AUGUSTA BUSH F PTCLDY    65  62  90 NW6       29.96S
AUGUSTA DANIEL PTCLDY    67  61  81 NW8       29.98R
THOMSON        MOCLDY    62  62 100 NW3       30.05R
WASHINGTON     FAIR      64  63  94 N6        30.01S
CLAXTON        CLOUDY    67  65  94 SW3       29.97S
SYLVANIA       CLOUDY    69  66  89 NW5       29.97R
STATESBORO     CLOUDY    68  66  93 W3        29.97R
SAVANNAH       CLOUDY    68  64  87 W6        29.96R


...SOUTHERN NORTH CAROLINA...

CITY           SKY/WX    TMP DP  RH WIND       PRES   REMARKS
CHARLOTTE      CLOUDY    66  60  81 N8        30.01S
MONROE         LGT RAIN  64  61  90 NE9       29.99S FOG
WADESBORO      CLOUDY   N/A N/A N/A N5        29.98S
ROCKINGHAM     CLOUDY    66  66  99 N6        29.97R FOG
RUTHERFORDTON  CLEAR     61  61  99 N5        30.03F
ASHEVILLE      PTCLDY    57  54  89 CALM      30.09R

$$




USA.gov is the U.S. government's official web portal to all federal, state and local government web resources and services.